Retour au catalogue

ALSAT 1N

ActifScienceSSO
NORAD 41789·PAYLOAD·🇩🇿 Algeria

Lancé Sep 26, 2016 depuis Satish Dhawan Space Centre

Loading…

Prochains Passages (prochaines 24 heures)

TLE

FraisSource: Space-Track

Époque: Sep 14, 2026, 11:01 UTC

1 41789U 16059G   26257.45937699  .00000549  00000-0  10033-3 0  9992
2 41789  97.8059 256.8652 0024314 262.8336  97.0106 14.69432226533112

Suivez ALSAT 1N en temps réel avec AllMySat

Download on the App Store